Weather in Pyatigorskiy

Russia / Stavropol Krai     43°58′21″N   43°15′40″E
temp.,
°C
wind,
m/s
gust,
m/s
humid.,
%
clouds,
%
prec.,
mm/h
press.,
hPa
HPBL,
m
27 june, mon
mon2700:00+16wnw2293100 0.3 101035
03:00+16w2395100 1.7 101165
06:00+17nw249278 0.1 1011178
09:00+20nw337753 0.1 1011447
12:00+25n335771 0.1 10101546
15:00+25wnw1257100 0.4 1009890
18:00+24wsw456929 0.3 1008359
21:00+19wsw3591100 1.6 101199
28 june, tue
tue2800:00+17nne1194100 0.6 101126
03:00+17sw2293100 2.4 101024
06:00+18w009184 0.2 101146
09:00+21e347963 0.3 1011753
12:00+26ese57520 0.3 10101706
15:00+25e675096 0.4 10101035
18:00+20ssw3475100 0.3 101284
21:00+18se228395 1.1 101415
29 june, wed
wed2900:00+17ssw118799 0.8 101311
03:00+16wnw1189100 2.2 101311
06:00+18sw1186100 0.8 101350
09:00+21e246864 0.8 1013573
12:00+26e44428 0.0 10131503
15:00+27e453839 0.0 10122152
18:00+24ese2255100 0.0 101256
21:00+21e225997 0.0 101323
30 june, thu
thu3000:00+17e228776 0.0 101421
03:00+15ese22947 0.0 101426
06:00+17ese25850 0.0 1014283
09:00+22ese57645 0.0 10141037
12:00+25ese674916 0.0 10121556
15:00+25ese4649100 0.0 10121279
18:00+22ese2556100 0.0 1012131
21:00+19s116797 0.0 101311
1 july, fri
fri100:00+17nne11595 0.0 101311
03:00+15wnw11572 0.0 101310
06:00+16n00641 0.0 101450
09:00+22e454939 0.0 1014874
12:00+23e6637100 0.0 10141432
15:00+24ese5535100 0.0 10141748
18:00+23ese354571 0.0 1014444
21:00+19s225388 0.0 101621